Regional Weather Roundup
Issued by NWS Lake Charles, LA

Home | Current Version | Previous Version | Text Only | Print | Product List | Glossary On
Versions: 1 2 3 4 5 6 7 8 9 10 11 12 13 14 15 16 17 18 19 20 21 22 23 24 25 26 27 28 29 30 31 32 33 34 35 36 37 38 39 40 41 42 43 44 45 46 47 48 49 50
000
ASUS44 KLCH 031310
RWRLCH
RWRLCH
REGIONAL WEATHER ROUNDUP
NATIONAL WEATHER SERVICE LAKE CHARLES LA
700 AM CST TUE MAR 03 2015

Note: "fair" indicates few or no clouds below 12,000 feet with no
significant weather and/or obstructions to visibility.


ACROSS SOUTHEAST TEXAS

CITY           SKY/WX    TMP DP  RH WIND       PRES   REMARKS
BEAUMONT       FOG       58  57  97 E6        30.04F VSB 1/4
BEAUMONT CITY  FOG       57  57 100 SE6       30.05S VSB 1/2
ORANGE         FOG       56  56 100 E5        30.07F VSB 3/4
JASPER         FOG       51  51  99 CALM      30.08S VSB 1/2
$$

ACROSS CENTRAL LOUISIANA

CITY           SKY/WX    TMP DP  RH WIND       PRES   REMARKS
LEESVILLE      FOG       51  50  98 SE6       30.07S VSB 1/2
FULLERTON      FOG       52  49  89 CALM      30.05F VSB 1/4
ALEXANDRIA INT FOG       47  47 100 E6        30.08S VSB 1/4
ESLER FIELD    CLOUDY    46  46 100 CALM      30.09F FOG
DERIDDER       FOG       51  50  96 CALM      30.09S VSB 3/4
OAKDALE        FOG       50  49  96 CALM      30.09S VSB<1/4
OPELOUSAS      FOG       51  51 100 CALM      30.09F VSB 1/4
$$

ACROSS SOUTHWEST AND SOUTH CENTRAL LOUISIANA

CITY           SKY/WX    TMP DP  RH WIND       PRES   REMARKS
SULPHUR        FOG       56  56 100 E5        30.07F VSB 1
LAKE CHARLES   FOG       54  54 100 E6        30.07S VSB 1/4
CHENNAULT INT  FOG       54  54 100 E3        30.08F VSB 1/4
CAMERON PHI    FOG       61  61 100 E9        30.09S VSB 0
DEQUINCY       NOT AVBL
JENNINGS       FOG       53  53 100 E5        30.08F VSB 1/4
LAFAYETTE      FOG       56  55  97 CALM      30.10S VSB 1/4
NEW IBERIA     FOG       59  57  93 E3        30.10F VSB<1/4
ABBEVILLE      NOT AVBL
PATTERSON      CLOUDY    66  64  94 SE5       30.10S
SALT POINT       N/A     65  65 100 SE6       30.08F
$$

SELECTED SITES ACROSS THE REGION

CITY           SKY/WX    TMP DP  RH WIND       PRES   REMARKS
HOUSTON BUSH   FOG       58  58 100 CALM      30.04R VSB 1/8
HOUSTON HOBBY  FOG       59  59 100 E3        30.03R VSB 1/4
GALVESTON      FOG       58  58 100 E7        30.04S VSB 1/4
COLLEGE STAT   FOG       48  48 100 CALM      30.03S VSB 1
CONROE         FOG       55  55 100 CALM      30.05R VSB 1/4
HUNTSVILLE     FOG       54  54 100 CALM      30.04S VSB 3/4
LUFKIN         FOG       52  49  89 CALM      30.06R VSB 1/4
SHREVEPORT     FOG       44  43  96 CALM      30.07S VSB 1/8
MONROE         CLOUDY    42  42 100 CALM      30.10F FOG
NATCHEZ MS     CLOUDY    50  48  93 CALM      30.11F VSB 1/4
BATON ROUGE    FOG       60  59  96 CALM      30.11S VSB<1/4
N.O. INTL ARPT FOG       66  64  93 SE3       30.13R VSB 1/4
SLIDELL        FOG       65  65 100 S5        30.13S VSB 1/4
$$

MARINE REPORTS

STATION/POSITION TIME  TEMP    WIND        PRES    VSBY  WAVE
                       AIR SEA DIR/SP/G                  HT/PER
                 (UTC) (F)     (DEG/KT/KT) (MB)    (MI)  (FT/S)
BUOY 30 S HIGH I 1300   60 58  110/  8/ 10 1016.6F         2/ 7
SEA RIM ST PARK  1300   57     100/ 10/ 12 1017.8F
PORT ARTHUR      1300      55              1017.6F
SABINE PASS N    1300      54              1017.5R
TEXAS POINT      NOT AVBL
CALCASIEU PASS   1300      55                N/A
LK CHARLES BEACH 1300      58              1018.4F
MARSH ISLAND     1200   60     110/  8/  8   N/A           0
FRESH WATER LOCK 1300      60              1018.7R
AMERADA PASS     1300      50              1019.3S
$$



USA.gov is the U.S. government's official web portal to all federal, state and local government web resources and services.